Regional Weather Roundup
Issued by NWS

Home | Current Version | Previous Version | Graphics & Text | Print | Product List | Glossary On
Versions: 1 2 3 4 5 6 7 8 9 10 11 12 13 14 15 16 17 18 19 20 21 22 23 24 25 26 27 28 29 30 31 32 33 34 35 36 37 38 39 40 41 42 43 44 45 46 47 48 49 50
000
ASUS45 KCYS 020810
RWRWY

WYOMING REGIONAL WEATHER ROUNDUP
NATIONAL WEATHER SERVICE CHEYENNE WY
200 AM MDT TUE JUN 02 2015

NOTE:  "FAIR" INDICATES FEW OR NO CLOUDS BELOW 12,000 FEET
WITH NO SIGNIFICANT WEATHER AND/OR OBSTRUCTIONS TO VISIBILITY.

WYZ001-020900-
YELLOWSTONE NATIONAL PARK

CITY           SKY/WX    TMP DP  RH WIND       PRES   REMARKS
LK YELLOWSTONE   N/A     34  32  92 NW3       30.12S
W YELLOWSTONE  NOT AVBL

$$
WYZ002>013-054>058-071-098>099-020900-
NORTHERN WYOMING

CITY           SKY/WX    TMP DP  RH WIND       PRES   REMARKS
JACKSON        FAIR      39  39 100 N7        30.05F WCI  34
CODY           FAIR      54  43  66 CALM      29.93F
GREYBULL       FAIR      56  50  80 N7        29.88S
WORLAND        FAIR      54  48  80 CALM      29.90S
SHERIDAN       FAIR      55  51  86 SW6       29.90F
BUFFALO        FAIR      56  50  80 NW14      29.93S
GILLETTE       FAIR      58  52  80 N5        29.90F
HULETT         FAIR      64  50  59 SW5       29.91S
NEWCASTLE      FAIR      61  48  63 NW17      29.93R

$$
WYZ014>020-022>026-101>103-020900-
CENTRAL WYOMING

CITY           SKY/WX    TMP DP  RH WIND       PRES   REMARKS
BIG PINEY      FAIR      39  36  89 CALM      30.07S
PINEDALE       FAIR      43  39  87 W10       30.08S
DUBOIS         FAIR      41  36  81 NW7       30.05S
LANDER         FAIR      49  43  80 VRB6      29.95R
RIVERTON       FAIR      51  43  74 SW9       29.99R
CASPER         FAIR      53  44  71 W8        29.97F
DOUGLAS        FAIR      59  48  67 S5        29.95S

$$
WYZ021-027>030-104>119-020900-
SOUTHERN WYOMING

CITY           SKY/WX    TMP DP  RH WIND       PRES   REMARKS
EVANSTON       FAIR      51  39  63 NE7       30.07S
KEMMERER       FAIR      48  37  66 SE6       30.09F
FORT BRIDGER   SUNNY     48  41  76 SE7       30.10F
ROCK SPRINGS   FAIR      52  38  58 S8        30.06F
DIXON          FAIR      53  43  67 SE9       30.06F
RAWLINS        FAIR      53  45  74 CALM      30.06F
SARATOGA       FAIR      48  43  81 CALM      30.09S
LARAMIE        FAIR      45  43  93 S7        30.08F
CHEYENNE       FAIR      55  48  77 SE7       30.04S
TORRINGTON     FAIR      59  53  80 SE10      29.93R
PINE BLUFFS    FAIR      54  52  94 SE8G17    29.98F

$$


USA.gov is the U.S. government's official web portal to all federal, state and local government web resources and services.